QTR9901 OTBD-OTBD

Flight info

Callsign QTR9901
Flight time 0h 52m
Altitude 6000
Route VFR / CIRCUITS
Aircraft A35K/H-SDE2E3GHIJ1J3J4J5LM1ORWXY/LB1D1

Departure

Time 2026-05-07 18:58
Airport Doha International Airport (OTBD)

Arrival

Time 2026-05-07 19:50
Airport Doha International Airport (OTBD)
Time Latitude Longitude Altitude Speed Heading
2026-05-07 18:19 25.26599 51.57176 34 ft 0 kts 338°
2026-05-07 18:40 25.26588 51.57181 33 ft 3 kts 338°
2026-05-07 18:40 25.26571 51.57188 34 ft 3 kts 338°
2026-05-07 18:40 25.26553 51.57196 31 ft 3 kts 338°
2026-05-07 18:41 25.26538 51.57202 30 ft 1 kts 329°
2026-05-07 18:41 25.26524 51.57215 29 ft 3 kts 296°
2026-05-07 18:41 25.26519 51.57238 31 ft 3 kts 256°
2026-05-07 18:41 25.26521 51.57245 29 ft 0 kts 248°
2026-05-07 18:48 25.26520 51.57243 31 ft 2 kts 248°
2026-05-07 18:48 25.26513 51.57222 31 ft 7 kts 250°
2026-05-07 18:48 25.26480 51.57124 32 ft 19 kts 249°
2026-05-07 18:49 25.26426 51.56971 33 ft 23 kts 249°
2026-05-07 18:49 25.26361 51.56792 34 ft 27 kts 248°
2026-05-07 18:49 25.26310 51.56654 35 ft 0 kts 248°
2026-05-07 18:49 25.26306 51.56649 36 ft 2 kts 236°
2026-05-07 18:50 25.26292 51.56639 36 ft 3 kts 203°
2026-05-07 18:50 25.26263 51.56635 36 ft 6 kts 184°
2026-05-07 18:50 25.26226 51.56650 37 ft 8 kts 158°
2026-05-07 18:50 25.26157 51.56680 38 ft 13 kts 158°
2026-05-07 18:51 25.26061 51.56723 39 ft 17 kts 158°
2026-05-07 18:51 25.26053 51.56727 39 ft 18 kts 158°
2026-05-07 18:53 25.26027 51.56738 38 ft 19 kts 158°
2026-05-07 18:53 25.25899 51.56795 35 ft 25 kts 158°
2026-05-07 18:53 25.25723 51.56874 34 ft 30 kts 158°
2026-05-07 18:53 25.25512 51.56967 31 ft 35 kts 158°
2026-05-07 18:54 25.25298 51.57060 32 ft 13 kts 159°
2026-05-07 18:54 25.25293 51.57062 32 ft 0 kts 159°
2026-05-07 18:54 25.25274 51.57070 31 ft 6 kts 159°
2026-05-07 18:54 25.25227 51.57087 31 ft 10 kts 170°
2026-05-07 18:55 25.25201 51.57076 31 ft 2 kts 232°
2026-05-07 18:55 25.25183 51.57044 30 ft 8 kts 243°
2026-05-07 18:55 25.25159 51.56976 29 ft 8 kts 258°
2026-05-07 18:55 25.25188 51.56921 29 ft 10 kts 320°
2026-05-07 18:56 25.25257 51.56883 29 ft 12 kts 335°
2026-05-07 18:56 25.25278 51.56875 29 ft 1 kts 338°
2026-05-07 18:56 25.25278 51.56874 29 ft 0 kts 338°
2026-05-07 18:57 25.25279 51.56874 29 ft 1 kts 338°
2026-05-07 18:57 25.25312 51.56859 29 ft 15 kts 338°
2026-05-07 18:57 25.25768 51.56659 35 ft 133 kts 338°
2026-05-07 18:57 25.26909 51.56159 427 ft 204 kts 339°
2026-05-07 18:58 25.28219 51.55586 1732 ft 203 kts 339°
2026-05-07 18:58 25.29607 51.54970 2244 ft 225 kts 339°
2026-05-07 18:58 25.31091 51.54300 2966 ft 235 kts 338°
2026-05-07 18:58 25.32518 51.53424 3428 ft 236 kts 316°
2026-05-07 18:59 25.33307 51.51823 3503 ft 241 kts 281°
2026-05-07 18:59 25.33109 51.49979 3516 ft 247 kts 246°
2026-05-07 18:59 25.31969 51.48604 3560 ft 252 kts 210°
2026-05-07 18:59 25.30282 51.48145 3581 ft 254 kts 176°
2026-05-07 19:00 25.28594 51.48661 3601 ft 254 kts 156°
2026-05-07 19:00 25.26956 51.49414 3599 ft 255 kts 156°
2026-05-07 19:00 25.25319 51.50185 3545 ft 255 kts 156°
2026-05-07 19:00 25.23684 51.50945 3405 ft 255 kts 157°
2026-05-07 19:01 25.22049 51.51707 3204 ft 253 kts 156°
2026-05-07 19:01 25.20451 51.52462 2964 ft 246 kts 156°
2026-05-07 19:01 25.18903 51.53186 2735 ft 239 kts 156°
2026-05-07 19:01 25.17403 51.53885 2564 ft 227 kts 156°
2026-05-07 19:02 25.15982 51.54536 2424 ft 217 kts 157°
2026-05-07 19:02 25.14587 51.55167 2337 ft 217 kts 156°
2026-05-07 19:02 25.13226 51.55808 2241 ft 205 kts 156°
2026-05-07 19:02 25.11977 51.56409 2136 ft 187 kts 155°
2026-05-07 19:03 25.11119 51.57394 2213 ft 186 kts 109°
2026-05-07 19:03 25.11094 51.58763 2152 ft 178 kts 69°
2026-05-07 19:03 25.11697 51.59926 2103 ft 173 kts 46°
2026-05-07 19:03 25.12584 51.60716 2022 ft 155 kts 24°
2026-05-07 19:04 25.13581 51.60962 2031 ft 145 kts
2026-05-07 19:04 25.14615 51.61069 1894 ft 150 kts
2026-05-07 19:04 25.15634 51.60914 1759 ft 147 kts 347°
2026-05-07 19:04 25.16614 51.60611 1543 ft 144 kts 342°
2026-05-07 19:05 25.17533 51.60233 1302 ft 138 kts 341°
2026-05-07 19:05 25.18390 51.59861 1115 ft 131 kts 340°
2026-05-07 19:05 25.19223 51.59510 948 ft 125 kts 342°
2026-05-07 19:05 25.20020 51.59176 807 ft 120 kts 339°
2026-05-07 19:06 25.20794 51.58841 743 ft 120 kts 341°
2026-05-07 19:06 25.22308 51.58167 425 ft 116 kts 339°
2026-05-07 19:06 25.23041 51.57848 281 ft 115 kts 338°
2026-05-07 19:07 25.23788 51.57520 156 ft 118 kts 339°
2026-05-07 19:07 25.24559 51.57189 38 ft 119 kts 340°
2026-05-07 19:07 25.25388 51.56826 139 ft 158 kts 339°
2026-05-07 19:07 25.26515 51.56322 909 ft 170 kts 339°
2026-05-07 19:08 25.27595 51.55841 1293 ft 167 kts 338°
2026-05-07 19:08 25.28667 51.55350 1495 ft 176 kts 339°
2026-05-07 19:08 25.29859 51.54782 1831 ft 193 kts 338°
2026-05-07 19:08 25.31086 51.54175 2431 ft 195 kts 336°
2026-05-07 19:09 25.32288 51.53432 2846 ft 208 kts 318°
2026-05-07 19:09 25.32883 51.51956 3186 ft 227 kts 276°
2026-05-07 19:09 25.32466 51.50158 3361 ft 258 kts 240°
2026-05-07 19:09 25.31111 51.48766 3558 ft 274 kts 210°
2026-05-07 19:10 25.29411 51.48247 3680 ft 243 kts 183°
2026-05-07 19:10 25.27833 51.48518 3609 ft 226 kts 158°
2026-05-07 19:10 25.26408 51.49236 3526 ft 226 kts 153°
2026-05-07 19:10 25.24904 51.49966 3521 ft 249 kts 157°
2026-05-07 19:11 25.23180 51.50744 3424 ft 289 kts 157°
2026-05-07 19:11 25.21313 51.51576 3340 ft 282 kts 157°
2026-05-07 19:11 25.19499 51.52399 3291 ft 280 kts 156°
2026-05-07 19:11 25.17713 51.53240 3266 ft 279 kts 155°
2026-05-07 19:12 25.15891 51.53943 3265 ft 277 kts 167°
2026-05-07 19:12 25.13984 51.54090 3276 ft 275 kts 185°
2026-05-07 19:12 25.12170 51.53587 3288 ft 271 kts 204°
2026-05-07 19:12 25.10590 51.52495 3330 ft 266 kts 222°
2026-05-07 19:13 25.09404 51.50964 3354 ft 261 kts 239°
2026-05-07 19:13 25.08687 51.49144 3416 ft 256 kts 257°
2026-05-07 19:13 25.08618 51.47236 3424 ft 250 kts 286°
2026-05-07 19:13 25.09523 51.45658 3374 ft 246 kts 323°
2026-05-07 19:14 25.11089 51.44995 3336 ft 244 kts 358°
2026-05-07 19:14 25.12713 51.45530 3389 ft 251 kts 36°
2026-05-07 19:14 25.13690 51.47017 3756 ft 240 kts 71°
2026-05-07 19:14 25.13674 51.48817 3989 ft 238 kts 108°
2026-05-07 19:15 25.12677 51.50262 4024 ft 244 kts 145°
2026-05-07 19:15 25.11049 51.50780 4034 ft 249 kts 182°
2026-05-07 19:15 25.09434 51.50133 4029 ft 253 kts 219°
2026-05-07 19:15 25.08458 51.48562 4029 ft 252 kts 255°
2026-05-07 19:16 25.08500 51.46659 4031 ft 250 kts 291°
2026-05-07 19:16 25.09531 51.45178 4029 ft 246 kts 327°
2026-05-07 19:16 25.11134 51.44676 4026 ft 242 kts
2026-05-07 19:16 25.12669 51.45339 4035 ft 241 kts 40°
2026-05-07 19:17 25.13526 51.46892 4037 ft 242 kts 77°
2026-05-07 19:17 25.13356 51.48722 4035 ft 247 kts 112°
2026-05-07 19:17 25.12206 51.50117 4037 ft 251 kts 150°
2026-05-07 19:17 25.10532 51.50514 4036 ft 254 kts 185°
2026-05-07 19:18 25.08926 51.49759 4031 ft 255 kts 221°
2026-05-07 19:18 25.08012 51.48121 4038 ft 253 kts 258°
2026-05-07 19:18 25.08132 51.46233 4032 ft 248 kts 295°
2026-05-07 19:18 25.09212 51.44821 4013 ft 242 kts 331°
2026-05-07 19:19 25.10813 51.44416 4005 ft 237 kts
2026-05-07 19:19 25.12272 51.45161 4000 ft 233 kts 45°
2026-05-07 19:19 25.12975 51.46715 3995 ft 229 kts 83°
2026-05-07 19:19 25.12628 51.48395 3998 ft 230 kts 121°
2026-05-07 19:20 25.11384 51.49477 4002 ft 234 kts 160°
2026-05-07 19:20 25.09775 51.49475 3995 ft 236 kts 199°
2026-05-07 19:20 25.08503 51.48375 3997 ft 236 kts 239°
2026-05-07 19:20 25.07932 51.46721 3998 ft 234 kts 252°
2026-05-07 19:21 25.06979 51.45347 3983 ft 221 kts 212°
2026-05-07 19:21 25.05583 51.44922 3994 ft 205 kts 178°
2026-05-07 19:21 25.04220 51.45263 3999 ft 201 kts 153°
2026-05-07 19:21 25.03108 51.46174 3994 ft 199 kts 129°
2026-05-07 19:22 25.02479 51.47505 3994 ft 196 kts 100°
2026-05-07 19:22 25.02547 51.48979 4000 ft 193 kts 73°
2026-05-07 19:22 25.02959 51.50387 3997 ft 193 kts 69°
2026-05-07 19:22 25.03412 51.51776 3996 ft 194 kts 69°
2026-05-07 19:23 25.03867 51.53180 3994 ft 194 kts 69°
2026-05-07 19:23 25.04318 51.54589 3993 ft 194 kts 69°
2026-05-07 19:23 25.04765 51.55992 3989 ft 194 kts 70°
2026-05-07 19:23 25.05205 51.57379 3986 ft 194 kts 70°
2026-05-07 19:24 25.05653 51.58797 3989 ft 195 kts 69°
2026-05-07 19:24 25.06100 51.60211 3988 ft 195 kts 69°
2026-05-07 19:24 25.06545 51.61618 3973 ft 191 kts 69°
2026-05-07 19:24 25.07065 51.62944 3651 ft 188 kts 57°
2026-05-07 19:25 25.08071 51.63724 3330 ft 174 kts
2026-05-07 19:25 25.09227 51.63749 3072 ft 161 kts 352°
2026-05-07 19:25 25.10263 51.63426 2837 ft 150 kts 340°
2026-05-07 19:25 25.11202 51.63030 2629 ft 139 kts 341°
2026-05-07 19:26 25.12078 51.62665 2439 ft 130 kts 339°
2026-05-07 19:26 25.12888 51.62308 2300 ft 127 kts 338°
2026-05-07 19:26 25.13714 51.61947 2138 ft 127 kts 339°
2026-05-07 19:26 25.14538 51.61588 1981 ft 127 kts 339°
2026-05-07 19:27 25.15352 51.61230 1827 ft 125 kts 340°
2026-05-07 19:27 25.16160 51.60877 1658 ft 124 kts 339°
2026-05-07 19:27 25.16958 51.60526 1510 ft 123 kts 340°
2026-05-07 19:27 25.17752 51.60178 1358 ft 123 kts 341°
2026-05-07 19:28 25.18535 51.59834 1205 ft 122 kts 341°
2026-05-07 19:28 25.19325 51.59488 1034 ft 122 kts 340°
2026-05-07 19:28 25.20092 51.59152 899 ft 121 kts 339°
2026-05-07 19:28 25.20867 51.58810 759 ft 120 kts 339°
2026-05-07 19:29 25.21643 51.58468 623 ft 120 kts 340°
2026-05-07 19:29 25.22411 51.58131 459 ft 120 kts 340°
2026-05-07 19:29 25.23161 51.57802 308 ft 120 kts 340°
2026-05-07 19:29 25.23929 51.57465 136 ft 119 kts 339°
2026-05-07 19:30 25.24688 51.57133 35 ft 116 kts 339°
2026-05-07 19:30 25.25531 51.56758 286 ft 159 kts 339°
2026-05-07 19:30 25.26614 51.56286 778 ft 174 kts 339°
2026-05-07 19:30 25.27698 51.55825 1152 ft 163 kts 340°
2026-05-07 19:31 25.28748 51.55365 1486 ft 163 kts 340°
2026-05-07 19:31 25.29784 51.54915 1530 ft 151 kts 340°
2026-05-07 19:31 25.30609 51.54418 1686 ft 128 kts 314°
2026-05-07 19:31 25.30746 51.53471 1902 ft 137 kts 255°
2026-05-07 19:32 25.30025 51.52717 1962 ft 155 kts 203°
2026-05-07 19:32 25.28973 51.52613 1915 ft 151 kts 170°
2026-05-07 19:32 25.27989 51.52938 1951 ft 148 kts 158°
2026-05-07 19:32 25.27049 51.53355 1951 ft 147 kts 155°
2026-05-07 19:33 25.26110 51.53798 1962 ft 147 kts 155°
2026-05-07 19:33 25.25163 51.54229 1996 ft 147 kts 156°
2026-05-07 19:33 25.24215 51.54651 2027 ft 147 kts 156°
2026-05-07 19:33 25.23266 51.55087 2036 ft 147 kts 156°
2026-05-07 19:34 25.22313 51.55495 2044 ft 148 kts 159°
2026-05-07 19:34 25.21289 51.55913 2142 ft 164 kts 159°
2026-05-07 19:34 25.20232 51.56358 2125 ft 160 kts 158°
2026-05-07 19:34 25.19222 51.56792 1981 ft 151 kts 157°
2026-05-07 19:35 25.18273 51.57215 1910 ft 147 kts 156°
2026-05-07 19:35 25.17325 51.57658 1864 ft 148 kts 156°
2026-05-07 19:35 25.16407 51.58125 1892 ft 147 kts 152°
2026-05-07 19:35 25.15818 51.58988 1893 ft 142 kts 95°
2026-05-07 19:36 25.16120 51.59932 1808 ft 129 kts 36°
2026-05-07 19:36 25.16935 51.60276 1736 ft 127 kts
2026-05-07 19:36 25.17809 51.60154 1449 ft 129 kts 342°
2026-05-07 19:36 25.18361 51.59898 1292 ft 128 kts 341°
2026-05-07 19:37 25.19428 51.59423 998 ft 121 kts 339°
2026-05-07 19:37 25.20202 51.59091 848 ft 119 kts 340°
2026-05-07 19:37 25.20976 51.58769 749 ft 119 kts 339°
2026-05-07 19:37 25.21738 51.58425 617 ft 118 kts 339°
2026-05-07 19:38 25.22259 51.58200 466 ft 118 kts 338°
2026-05-07 19:38 25.23025 51.57862 292 ft 120 kts 338°
2026-05-07 19:38 25.23803 51.57516 173 ft 124 kts 339°
2026-05-07 19:38 25.24597 51.57170 41 ft 123 kts 338°
2026-05-07 19:39 25.25343 51.56843 32 ft 114 kts 338°
2026-05-07 19:39 25.26125 51.56500 174 ft 152 kts 338°
2026-05-07 19:39 25.27259 51.56001 973 ft 179 kts 338°
2026-05-07 19:39 25.28381 51.55511 1712 ft 174 kts 340°
2026-05-07 19:40 25.29569 51.54973 2026 ft 198 kts 339°
2026-05-07 19:40 25.30575 51.53808 2278 ft 227 kts 297°
2026-05-07 19:40 25.30772 51.52045 2511 ft 235 kts 263°
2026-05-07 19:40 25.30021 51.50484 2582 ft 234 kts 226°
2026-05-07 19:41 25.28599 51.49636 2588 ft 236 kts 194°
2026-05-07 19:41 25.26944 51.49713 2593 ft 244 kts 164°
2026-05-07 19:41 25.25386 51.50349 2593 ft 239 kts 159°
2026-05-07 19:41 25.23846 51.51027 2561 ft 237 kts 157°
2026-05-07 19:42 25.22331 51.51741 2513 ft 236 kts 156°
2026-05-07 19:42 25.20823 51.52474 2460 ft 236 kts 156°
2026-05-07 19:42 25.19332 51.53199 2431 ft 236 kts 156°
2026-05-07 19:42 25.17821 51.53896 2398 ft 236 kts 157°
2026-05-07 19:43 25.16293 51.54606 2417 ft 237 kts 156°
2026-05-07 19:43 25.14786 51.55312 2443 ft 236 kts 156°
2026-05-07 19:43 25.13272 51.56026 2481 ft 236 kts 157°
2026-05-07 19:43 25.11809 51.56781 2508 ft 223 kts 150°
2026-05-07 19:44 25.10712 51.57830 2500 ft 197 kts 124°
2026-05-07 19:44 25.10209 51.59121 2482 ft 172 kts 96°
2026-05-07 19:44 25.10307 51.60318 2405 ft 148 kts 66°
2026-05-07 19:44 25.10836 51.61181 2356 ft 129 kts 38°
2026-05-07 19:45 25.11575 51.61704 2392 ft 126 kts 15°
2026-05-07 19:45 25.12430 51.61890 2433 ft 125 kts
2026-05-07 19:45 25.13311 51.61886 2371 ft 127 kts 352°
2026-05-07 19:45 25.14169 51.61671 2224 ft 125 kts 343°
2026-05-07 19:46 25.14974 51.61336 2023 ft 123 kts 340°
2026-05-07 19:46 25.15773 51.61017 1805 ft 122 kts 338°
2026-05-07 19:46 25.16560 51.60667 1605 ft 122 kts 340°
2026-05-07 19:46 25.17336 51.60325 1391 ft 121 kts 341°
2026-05-07 19:47 25.18100 51.59989 1206 ft 119 kts 340°
2026-05-07 19:47 25.18864 51.59674 1025 ft 116 kts 340°
2026-05-07 19:47 25.19626 51.59348 954 ft 119 kts 340°
2026-05-07 19:47 25.20398 51.59017 829 ft 118 kts 340°
2026-05-07 19:48 25.21163 51.58691 719 ft 117 kts 338°
2026-05-07 19:48 25.21925 51.58353 568 ft 118 kts 337°
2026-05-07 19:48 25.22698 51.58010 376 ft 121 kts 339°
2026-05-07 19:48 25.23460 51.57671 224 ft 121 kts 340°
2026-05-07 19:49 25.24215 51.57338 88 ft 120 kts 338°
2026-05-07 19:49 25.24963 51.57013 34 ft 104 kts 338°
2026-05-07 19:49 25.25462 51.56793 28 ft 60 kts 338°
2026-05-07 19:49 25.25804 51.56642 35 ft 50 kts 338°
2026-05-07 19:50 25.26119 51.56506 36 ft 45 kts 336°
2026-05-07 19:50 25.26387 51.56517 35 ft 38 kts
2026-05-07 19:50 25.26484 51.56525 32 ft 0 kts
2026-05-07 19:50 25.26494 51.56527 31 ft 2 kts 18°
2026-05-07 19:51 25.26500 51.56542 31 ft 3 kts 68°
2026-05-07 19:51 25.26499 51.56580 32 ft 6 kts 108°
2026-05-07 19:51 25.26464 51.56614 33 ft 8 kts 153°
2026-05-07 19:51 25.26401 51.56644 34 ft 12 kts 159°
2026-05-07 19:52 25.26336 51.56689 35 ft 11 kts 108°
2026-05-07 19:52 25.26354 51.56778 34 ft 14 kts 68°
2026-05-07 19:52 25.26397 51.56894 34 ft 18 kts 68°
2026-05-07 19:52 25.26451 51.57041 32 ft 23 kts 68°
2026-05-07 19:53 25.26495 51.57162 33 ft 9 kts 68°
2026-05-07 19:53 25.26522 51.57201 33 ft 4 kts 24°
2026-05-07 19:53 25.26547 51.57197 33 ft 4 kts 343°
2026-05-07 19:53 25.26576 51.57185 34 ft 7 kts 339°
2026-05-07 19:54 25.26600 51.57176 34 ft 0 kts 340°